Overview Statistics Trail Chart Weather Telemetry Raw packets
 

This is the latest recevied weather packets stored in our database for station/object HS2XQB-3. If no packets are shown the sender has not sent any weather packets the latest 10 day(s).

<< 10 11 12 13 14 15 16 >>
Time Temp. Humidity Pressure Rain* Wind** Luminosity Snow
1788176399 23.33° C 39% 1004 hPa - - 0 W/m² -
1788174578 23.33° C 39% 1003 hPa - - 0 W/m² -
1788172755 23.89° C 39% 1003 hPa - - 0 W/m² -
1788170933 24.44° C 39% 1003 hPa - - 0 W/m² -
1788169111 24.44° C 39% 1003 hPa - - 0 W/m² -
1788167289 25° C 39% 1003 hPa - - 0 W/m² -
1788165467 25.56° C 38% 1003 hPa - - 0 W/m² -
1788163645 26.11° C 39% 1003 hPa - - 0 W/m² -
1788161823 26.67° C 47% 1003 hPa - - 0 W/m² -
1788160001 28.33° C 45% 1003 hPa - - 0 W/m² -
1788158179 28.89° C 46% 1003 hPa - - 0 W/m² -
1788156357 29.44° C 48% 1003 hPa - - 0 W/m² -
1788154535 29.44° C 50% 1004 hPa - - 0 W/m² -
1788152713 29.44° C 49% 1005 hPa - - 0 W/m² -
1788150891 28.33° C 47% 1005 hPa - - 0 W/m² -
1788149069 27.78° C 50% 1005 hPa - - 0 W/m² -
1788147247 28.33° C 52% 1005 hPa - - 0 W/m² -
1788145426 27.22° C 59% 1005 hPa - - 0 W/m² -
1788143603 26.67° C 52% 1006 hPa - - 0 W/m² -
1788141780 26.11° C 50% 1005 hPa - - 0 W/m² -
1788139959 26.11° C 50% 1005 hPa - - 0 W/m² -
1788138137 26.11° C 51% 1005 hPa - - 0 W/m² -
1788136314 26.11° C 52% 1005 hPa - - 0 W/m² -
1788134492 26.11° C 51% 1004 hPa - - 0 W/m² -
1788132670 28.33° C 52% 1004 hPa - - 0 W/m² -

* Rain since midnight (hover to see other rain measurements)
** Current wind speed in m/s (hover to see current wind gust speed)